Weather History for Fort Polk, LA

Change the Weather History Date:

Friday, October 21, 2011

  Actual Average (KPOE) Record (KPOE)
Temperature  
Mean Temperature 60 °F -  
Max Temperature 79 °F 75 °F 87 °F (2004)
Min Temperature 41 °F 55 °F 42 °F (1999)
Degree Days  
Heating Degree Days 5    
Growing Degree Days 10 (Base 50)    
Moisture  
Dew Point 43 °F    
Average Humidity 61    
Maximum Humidity 93    
Minimum Humidity 24    
Precipitation  
Precipitation 0.00 in - - ()
Sea Level Pressure  
Sea Level Pressure 30.15 in    
Wind  
Wind Speed 1 mph (ESE)    
Max Wind Speed 5 mph    
Max Gust Speed -    
Visibility 10 miles    
Events      
Averages and records for this station are not official NWS values.
T = Trace of Precipitation, MM = Missing Value Source: NWS Daily Summary

Daily Weather History Graph

Daily Weather History Graph

Search for Another Location

Airport:

Trip Planner

Search our weather history database for the weather conditions in past years. The results will help you decide how hot, cold, wet, or windy it might be!

Date:

Astronomy

Oct. 21, 2011 Rise Set
Actual Time 7:20 AM CDT 6:34 PM CDT
Civil Twilight 6:55 AM CDT 6:59 PM CDT
Nautical Twilight 6:27 AM CDT 7:27 PM CDT
Astronomical Twilight 5:59 AM CDT 7:55 PM CDT
Moon 1:33 AM CDT (10/21) 2:59 PM CDT (10/21)
Length of Visible Light 12h 03m
Length of Day
11h 14m
Waning Crescent, 33% of the Moon is Illuminated
Oct 21
Waning Crescent
Oct 26
New
Nov 2
First Quarter
Nov 10
Full
Nov 18
Last Quarter

Hourly Weather History & Observations

Time (CDT) Temp. Dew Point Humidity Pressure Visibility Wind Dir Wind Speed Gust Speed Precip Events Conditions
12:56 AM 44.1 °F 39.0 °F 82% 30.14 in 10.0 mi Calm Calm - N/A   Clear
1:56 AM 43.0 °F 39.9 °F 89% 30.14 in 10.0 mi Calm Calm - N/A   Clear
2:56 AM 43.0 °F 39.0 °F 86% 30.14 in 10.0 mi Calm Calm - N/A   Clear
3:56 AM 43.0 °F 39.9 °F 89% 30.15 in 10.0 mi Calm Calm - N/A   Clear
4:56 AM 42.1 °F 39.0 °F 89% 30.16 in 10.0 mi Calm Calm - N/A   Clear
5:56 AM 41.0 °F 39.0 °F 93% 30.17 in 10.0 mi Calm Calm - N/A   Clear
6:56 AM 41.0 °F 39.0 °F 93% 30.19 in 10.0 mi Calm Calm - N/A   Clear
7:56 AM 44.1 °F 39.9 °F 85% 30.20 in 10.0 mi Calm Calm - N/A   Clear
8:56 AM 57.0 °F 37.0 °F 47% 30.22 in 10.0 mi Calm Calm - N/A   Partly Cloudy
9:56 AM 63.0 °F 37.0 °F 38% 30.23 in 10.0 mi ESE 4.6 mph - N/A   Overcast
11:56 AM 73.0 °F 34.0 °F 24% 30.21 in 10.0 mi Calm Calm - N/A   Partly Cloudy
12:56 PM 75.0 °F 37.9 °F 26% 30.18 in 10.0 mi Calm Calm - N/A   Clear
1:56 PM 77.0 °F 46.0 °F 33% 30.15 in 10.0 mi Calm Calm - N/A   Partly Cloudy
2:56 PM 79.0 °F 48.0 °F 34% 30.13 in 10.0 mi NE 3.5 mph - N/A   Clear
3:56 PM 79.0 °F 50.0 °F 36% 30.11 in 10.0 mi Calm Calm - N/A   Clear
4:56 PM 79.0 °F 48.9 °F 35% 30.10 in 10.0 mi Calm Calm - N/A   Clear
5:56 PM 75.9 °F 46.0 °F 35% 30.11 in 10.0 mi ESE 4.6 mph - N/A   Clear
6:56 PM 70.0 °F 45.0 °F 41% 30.12 in 10.0 mi SE 3.5 mph - N/A   Clear
7:56 PM 66.0 °F 46.0 °F 48% 30.12 in 10.0 mi SE 3.5 mph - N/A   Clear
8:56 PM 60.1 °F 46.9 °F 62% 30.14 in 10.0 mi Calm Calm - N/A   Clear
9:56 PM 57.0 °F 48.0 °F 72% 30.15 in 10.0 mi Calm Calm - N/A   Clear
10:56 PM 55.9 °F 48.0 °F 75% 30.15 in 10.0 mi Calm Calm - N/A   Clear
11:56 PM 54.0 °F 48.0 °F 80% 30.14 in 10.0 mi Calm Calm - N/A   Clear